This demonstration page uses our WeatherBlox Daily Observations layout. Learn more.

Left ArrowRight Arrow

Hourly Observations for November 26, 2018

Temp ( °F °C ) Dew Point ( °F °C ) Humidity (%) Winds ( mph kmh ) Pressure ( in mb ) Visibility ( mi km ) Precip ( " mm )
12:53 am 00:53 Cloudy with Rain 49 9.4 46 7.8 90 90 VRB 6 9 29.47 998 4 6 0.11 2.79
1:53 am 01:53 Cloudy 49 9.4 46 7.8 90 90 SSE 6 9 29.43 997 10 16 0.03 0.76
2:53 am 02:53 Cloudy 50 10 47 8.3 89 89 SSW 8 13 29.42 996 10 16 N/A
3:13 am 03:13 Cloudy 50 10 46 7.8 86 86 SSW 7 11 29.41 996 10 16 N/A
3:42 am 03:42 Cloudy 50 10 44 6.7 80 80 SSW 9 15 29.41 996 10 16 N/A
3:53 am 03:53 Cloudy 49 9.4 43 6.1 80 80 SSW 7 11 29.43 997 10 16 N/A
4:53 am 04:53 Cloudy 47 8.3 39 3.9 74 74 WSW 15 24 29.45 997 10 16 N/A
5:41 am 05:41 Cloudy 46 7.8 38 3.3 73 73 WSW 14 22 29.50 999 10 16 N/A
5:53 am 05:53 Cloudy 45 7.2 38 3.3 77 77 WSW 16 26 29.48 998 10 16 N/A
6:53 am 06:53 Cloudy 40 4.4 32 undefined 73 73 WSW 16 26 29.53 1000 10 16 N/A
7:53 am 07:53 Cloudy with Light Rain 36 2.2 32 undefined 86 86 SW 10 17 29.55 1001 10 16 N/A
8:53 am 08:53 Cloudy 36 2.2 32 undefined 86 86 SW 13 20 29.58 1002 10 16 N/A
9:05 am 09:05 Cloudy with Light Rain 35 1.7 32 undefined 89 89 SW 12 19 29.62 1003 8 13 N/A
9:53 am 09:53 Cloudy 36 2.2 33 0.6 89 89 SW 9 15 29.60 1002 10 16 N/A
10:53 am 10:53 Cloudy 37 2.8 33 0.6 86 86 WSW 12 19 29.63 1004 10 16 N/A
11:39 am 11:39 Cloudy with Light Rain 37 2.8 35 1.7 93 93 WSW 7 11 29.68 1005 3 5 N/A
11:53 am 11:53 Cloudy with Mist and Fog 37 2.8 35 1.7 93 93 WSW 9 15 29.65 1004 4 6 N/A
12:51 pm 12:51 Cloudy with Light Rain 37 3 34 1 87 87 WNW 15 24 29.71 1006 10 16 0.01 0.25
12:53 pm 12:53 Cloudy with Light Rain 38 3.3 34 1.1 86 86 WNW 15 24 29.69 1005 10 16 0.01 0.25
1:53 pm 13:53 Cloudy with Light Rain 36 2.2 32 undefined 86 86 W 13 20 29.74 1007 10 16 0.01 0.25
2:15 pm 14:15 Cloudy with Light Snow 36 2.2 32 undefined 86 86 W 14 22 29.77 1008 10 16 N/A
2:30 pm 14:30 Cloudy with Light Snow 35 1.7 32 undefined 89 89 WNW 15 24 29.80 1009 3 5 0.01 0.25
2:44 pm 14:44 Cloudy with Light Snow 35 1.7 31 -0.6 85 85 WNW 15 24 29.80 1009 2 3 0.01 0.25
2:47 pm 14:47 Cloudy with Light Snow 34 1 30 -1 87 87 W 17 28 29.80 1009 2 2 0.01 0.25
2:53 pm 14:53 Cloudy with Light Snow 34 1.1 31 -0.6 89 89 WNW 15 24 29.78 1009 2 3 0.01 0.25
2:56 pm 14:56 Cloudy with Light Snow 34 1.1 31 -0.6 89 89 WNW 14 22 29.80 1009 3 5 N/A
3:12 pm 15:12 Cloudy with Light Snow 35 1.7 31 -0.6 85 85 WNW 15 24 29.83 1010 4 6 N/A
3:30 pm 15:30 Cloudy 35 1.7 30 -1.1 82 82 WNW 16 26 29.83 1010 9 14 N/A
3:53 pm 15:53 Cloudy with Light Snow 35 1.7 31 -0.6 85 85 WNW 10 17 29.82 1010 9 14 N/A
4:04 pm 16:04 Cloudy with Light Snow 35 1.7 31 -0.6 85 85 WNW 13 20 29.85 1011 8 13 N/A
4:44 pm 16:44 Cloudy with Light Snow 34 1.1 31 -0.6 89 89 WNW 13 20 29.85 1011 2 3 0.01 0.25
4:47 pm 16:47 Cloudy with Light Snow 34 1 30 -1 87 87 W 10 17 29.85 1011 2 2 0.01 0.25
4:53 pm 16:53 Cloudy with Light Snow 34 1.1 31 -0.6 89 89 W 9 15 29.85 1011 1 2 0.01 0.25
4:59 pm 16:59 Cloudy with Light Snow 33 0.6 31 -0.6 92 92 W 12 19 29.85 1011 2 3 0.01 0.25
5:18 pm 17:18 Cloudy with Light Snow 34 1.1 31 -0.6 89 89 W 10 17 29.88 1012 3 5 0.01 0.25
5:29 pm 17:29 Cloudy with Light Snow 33 0.6 31 -0.6 92 92 W 9 15 29.88 1012 2 3 0.01 0.25
5:33 pm 17:33 Cloudy with Light Snow 33 0.6 30 -1.1 89 89 W 9 15 29.88 1012 2 2 0.01 0.25
5:44 pm 17:44 Cloudy with Light Snow 33 0.6 30 -1.1 89 89 W 9 15 29.88 1012 2 3 0.02 0.51
5:53 pm 17:53 Cloudy with Light Snow 33 0.6 30 -1.1 89 89 W 8 13 29.88 1012 3 4 0.02 0.51
6:04 pm 18:04 Cloudy with Light Snow 33 0.6 30 -1.1 89 89 W 12 19 29.91 1013 2 3 N/A
6:12 pm 18:12 Cloudy with Light Snow 33 0.6 30 -1.1 89 89 W 15 24 29.91 1013 2 3 N/A
6:20 pm 18:20 Cloudy with Light Snow 33 0.6 29 -1.7 85 85 W 16 26 29.91 1013 3 5 N/A
6:34 pm 18:34 Cloudy with Light Snow 33 0.6 29 -1.7 85 85 W 13 20 29.91 1013 4 6 N/A
6:53 pm 18:53 Cloudy with Light Snow 32 undefined 29 -1.7 88 88 W 10 17 29.90 1013 4 6 N/A
7:51 pm 19:51 Cloudy with Light Snow 32 undefined 28 -2 87 87 W 8 13 29.97 1015 3 4 N/A
7:53 pm 19:53 Cloudy with Light Snow 32 undefined 28 -2.2 85 85 W 8 13 29.92 1013 3 4 N/A
8:00 pm 20:00 Cloudy with Light Snow 31 -0.6 29 -1.7 92 92 W 12 19 29.97 1015 2 3 N/A
8:15 pm 20:15 Cloudy with Light Snow 31 -0.6 29 -1.7 92 92 W 9 15 29.97 1015 3 5 0.01 0.25
8:53 pm 20:53 Cloudy with Light Snow 32 undefined 28 -2.2 85 85 WNW 17 28 29.93 1014 9 14 0.01 0.25
9:27 pm 21:27 Cloudy with Light Snow 32 undefined 27 -2.8 82 82 W 15 24 30.00 1016 9 14 N/A
9:53 pm 21:53 Cloudy with Light Wintry Mix 32 undefined 27 -2.8 82 82 WNW 13 20 29.96 1014 10 16 N/A
10:53 pm 22:53 Cloudy with Light Wintry Mix 31 -0.6 27 -2.8 85 85 W 9 15 29.96 1015 8 13 N/A
11:53 pm 23:53 Cloudy 30 -1.1 26 -3.3 85 85 WNW 10 17 29.96 1015 10 16 N/A

Powered by AerisWeather